Location: Poughquag
(41.6090°N, 73.6820°W)
Time: 12:14:44
(UTC-04:00)

A-11 Canister half - Pass Details

Date: 30 May 2020
Orbit: 1527 x 1682 km, 47.3° (Epoch: 06 July)

Event Time Altitude Azimuth Distance (km) Brightness Sun altitude
Rises 08:48:08 0° 243° (WSW) 4,669 11.1 35.7°
Reaches altitude 10° 08:51:09 10° 243° (WSW) 3,689 10.7 36.2°
Maximum altitude 09:00:29 88° 334° (NNW) 1,545 9.7 38.0°
Drops below altitude 10° 09:10:02 10° 65° (ENE) 3,770 12.0 39.8°
Sets 09:13:09 0° 66° (ENE) 4,775 12.3 40.3°
